GAOFEN 9 04

导读 | 豆包AI

GAOFEN 9 04(高分九号04星)是中国于2020年8月6日发射的光学遥感卫星,属于高分系列对地观测卫星。该卫星地面像元分辨率最高可达亚米级,具备高清晰度成像、宽幅观测等优势,主要应用于国土普查、城市规划、农作物估产和防灾减灾等领域,可为“一带一路”建设提供重要信息保障,提升我国对地观测能力。

Basic Information
目录编号:
46025
目录名称:
GAOFEN 9 04
国际标识:
2020-054A
轨道中心:
EARTH
卫星名称:
GAOFEN 9 04
卫星全名:
--
卫星状态:
在轨 (已飞行2091 天)
发射日期:
2020-08-06 UTC
国别 :
中国 (CN)
星等 :
--
Orbit Information
数据来源 国际轨道数据
星历时间: 2026-04-28T20:39:29+0800
10小时前
查看轨道信息
半长轴: 6835.583km
偏心率: 0.0009104
轨道倾角: 97.246°
近地点辐角 268.898°
升交点赤经 188.236°
平近点角 91.122°
近地点: 451.222km
远地点: 463.67km
周期: 93.740分钟
每日圈数: 15.361705
Detailed Information
使用方式:
暂无
2D Orbit Map
3D Orbit Map
Orbit Altitude Analysis Chart
Orbit Inclination Analysis Chart
Orbit Comprehensive Analysis Chart
View Comprehensive Chart